DW3501 Weather Reports


time (UTC)temp
F
wind
direction
speed
knots
gust
knots
rain 1hr
in
rain 24hr
in
rain mn
in
humidity
%
barometer
mb
20260504100246 42 254 0.9 4.3 0.00 0.00 0.00 69 1010.8
20260504081639 42 250 3.5 6.1 0.00 0.00 0.00 68 1010.7
20260504081135 43 182 4.3 6.1 0.00 0.00 0.00 68 1010.8
20260504080632 43 196 4.3 7.0 0.00 0.00 0.00 68 1010.8
20260504080128 43 236 2.6 5.2 0.00 0.00 0.00 68 1010.4
20260504050445 42 260 0.9 1.7 0.00 0.00 0.00 72 1010.4
20260504045942 43 275 0.0 0.0 0.00 0.00 0.00 71 1010.4
20260504045437 43 275 0.0 0.0 0.00 0.00 0.00 70 1010.8
20260504044934 44 275 0.0 0.0 0.00 0.00 0.00 70 1010.5
20260504044431 44 275 0.0 0.0 0.00 0.00 0.00 70 1010.7
20260504043929 44 275 0.0 0.0 0.00 0.00 0.00 70 1010.7
20260504043426 44 275 0.0 0.0 0.00 0.00 0.00 70 1010.5
20260504042923 44 275 0.0 0.0 0.00 0.00 0.00 70 1010.5
20260504042419 44 275 0.0 0.0 0.00 0.00 0.00 70 1010.7
20260504041916 44 275 0.0 0.9 0.00 0.00 0.00 70 1010.7
20260504041412 44 275 1.7 1.7 0.00 0.00 0.00 70 1010.5
20260504040908 44 275 0.0 0.9 0.00 0.00 0.00 70 1010.5
20260504040406 44 268 0.0 0.0 0.00 0.00 0.00 70 1010.8
20260504035902 44 278 0.0 1.7 0.00 0.00 0.00 69 1010.7
20260504035359 44 275 0.0 0.0 0.00 0.00 0.00 69 1010.8
20260504034856 44 274 0.0 1.7 0.00 0.00 0.00 69 1010.9
20260504034353 44 262 0.9 4.3 0.00 0.00 0.00 69 1010.8
20260504033850 44 280 0.0 7.0 0.00 0.00 0.00 69 1010.7
20260504033348 44 280 1.7 2.6 0.00 0.00 0.00 69 1010.8
20260504032845 44 289 1.7 2.6 0.00 0.00 0.00 68 1011.0
20260504032342 44 263 2.6 5.2 0.00 0.00 0.00 68 1011.0
20260504031838 44 225 3.5 4.3 0.00 0.00 0.00 68 1010.9
20260504031336 44 308 1.7 1.7 0.00 0.00 0.00 68 1010.9
20260504030832 44 263 0.9 1.7 0.00 0.00 0.00 68 1010.9
20260504030330 44 274 0.0 0.9 0.00 0.00 0.00 68 1011.0
20260504025826 43 286 0.9 4.3 0.00 0.00 0.00 69 1010.8
20260504025323 43 278 0.0 0.9 0.00 0.00 0.00 69 1011.1
20260504024820 43 274 0.9 1.7 0.00 0.00 0.00 69 1010.9
20260504024316 42 266 0.0 4.3 0.00 0.00 0.00 70 1011.0
20260504023812 42 259 0.0 0.9 0.00 0.00 0.00 70 1010.9
20260504023309 42 260 0.0 0.0 0.00 0.00 0.00 70 1011.1
20260504022805 42 260 0.0 0.0 0.00 0.00 0.00 70 1011.1
20260504022304 42 260 0.0 0.0 0.00 0.00 0.00 69 1010.9
20260504021758 42 260 0.0 0.0 0.00 0.00 0.00 69 1011.1
20260504021256 42 260 0.0 0.0 0.00 0.00 0.00 69 1011.0
20260504020753 42 260 0.9 0.9 0.00 0.00 0.00 69 1010.9
20260504020249 42 264 0.0 0.0 0.00 0.00 0.00 69 1010.8
20260504015745 42 264 0.0 0.9 0.00 0.00 0.00 69 1010.9
20260504015242 42 268 0.0 1.7 0.00 0.00 0.00 69 1011.0
20260504014737 42 266 0.0 0.0 0.00 0.00 0.00 68 1011.0
20260504014234 43 266 0.0 0.0 0.00 0.00 0.00 68 1011.1
20260504013732 43 266 0.0 0.0 0.00 0.00 0.00 68 1011.0
20260504013230 43 248 0.0 0.0 0.00 0.00 0.00 68 1011.0
20260504012726 43 248 0.0 0.0 0.00 0.00 0.00 67 1010.7
20260504012224 43 267 0.0 0.0 0.00 0.00 0.00 67 1010.9
20260504011720 44 267 0.0 0.0 0.00 0.00 0.00 67 1010.7
20260504011217 44 267 0.0 0.9 0.00 0.00 0.00 66 1010.7
20260504010713 44 266 0.0 0.0 0.00 0.00 0.00 66 1010.7
20260504010209 44 266 0.0 0.0 0.00 0.00 0.00 66 1010.5
20260504005706 44 266 0.0 0.0 0.00 0.00 0.00 66 1010.7
20260504005203 44 266 0.0 0.0 0.00 0.00 0.00 66 1010.3
20260504004701 44 266 0.0 0.0 0.00 0.00 0.00 66 1010.4
20260504004157 44 266 0.0 0.0 0.00 0.00 0.00 66 1010.4
20260504003654 44 266 0.0 0.0 0.00 0.00 0.00 65 1010.2
20260504003151 44 266 0.0 0.0 0.00 0.00 0.00 66 1010.2
20260504002647 44 266 0.0 0.0 0.00 0.00 0.00 65 1010.2
20260504002145 44 266 0.0 0.0 0.00 0.00 0.00 65 1010.0
20260504001643 44 266 0.0 0.0 0.00 0.00 0.00 65 1010.1
20260504001138 44 266 0.0 0.9 0.00 0.00 0.00 64 1010.1
20260504000636 44 266 0.0 0.0 0.00 0.00 0.00 64 1010.3
20260504000133 44 266 0.0 0.9 0.00 0.00 0.00 63 1010.2
20260503235631 45 266 0.0 0.0 0.00 0.00 0.00 62 1010.0
20260503235128 45 266 0.9 1.7 0.00 0.00 0.00 62 1010.0
20260503234626 45 279 0.0 1.7 0.00 0.00 0.00 62 1010.0
20260503234124 46 279 0.9 0.9 0.00 0.00 0.00 61 1010.0
20260503233621 46 259 0.0 1.7 0.00 0.00 0.00 61 1010.0
20260503233116 46 281 0.9 2.6 0.00 0.00 0.00 61 1009.9
20260503232613 46 266 1.7 6.1 0.00 0.00 0.00 62 1010.0
20260503232110 46 248 2.6 7.8 0.00 0.00 0.00 61 1009.8
20260503231609 46 276 0.0 1.7 0.00 0.00 0.00 61 1009.9
20260503231105 46 292 0.9 2.6 0.00 0.00 0.00 61 1010.0
20260503230602 46 263 2.6 4.3 0.00 0.00 0.00 61 1010.0
20260503230059 46 335 3.5 4.3 0.00 0.00 0.00 61 1009.8
20260503225555 46 279 0.9 1.7 0.00 0.00 0.00 61 1009.9
20260503225051 46 303 0.9 1.7 0.00 0.00 0.00 61 1009.7
20260503224549 46 254 0.9 4.3 0.00 0.00 0.00 60 1010.1
20260503224046 47 258 1.7 6.1 0.00 0.00 0.00 60 1010.0
20260503223544 47 231 1.7 2.6 0.00 0.00 0.00 60 1009.9
20260503223039 47 265 0.9 4.3 0.00 0.00 0.00 60 1010.1
20260503222538 47 259 2.6 4.3 0.00 0.00 0.00 59 1010.1
20260503222035 47 291 4.3 6.1 0.00 0.00 0.00 58 1010.0
20260503221533 48 245 3.5 9.6 0.00 0.00 0.00 57 1009.9
20260503221031 48 323 0.9 1.7 0.00 0.00 0.00 57 1009.9
20260503220526 48 252 1.7 6.1 0.00 0.00 0.00 55 1009.8
20260503220023 48 313 4.3 7.8 0.00 0.00 0.00 54 1009.8
20260503215521 48 264 3.5 7.0 0.00 0.00 0.00 53 1009.7
20260503215018 48 269 4.3 8.7 0.00 0.00 0.00 52 1009.8
20260503214516 49 279 2.6 7.0 0.00 0.00 0.00 53 1009.7
20260503214012 49 254 2.6 9.6 0.00 0.00 0.00 53 1009.7
20260503213511 48 303 1.7 5.2 0.00 0.00 0.00 52 1009.3
20260503213007 49 329 3.5 7.8 0.00 0.00 0.00 51 1009.5
20260503212504 49 248 2.6 6.1 0.00 0.00 0.00 50 1009.4
20260503212002 49 288 4.3 6.1 0.00 0.00 0.00 50 1009.5
20260503211459 49 258 1.7 6.1 0.00 0.00 0.00 50 1009.4
20260503210955 50 257 4.3 8.7 0.00 0.00 0.00 49 1009.5
20260503210452 49 302 1.7 6.1 0.00 0.00 0.00 48 1009.4
20260503205952 50 306 0.9 8.7 0.00 0.00 0.00 48 1009.2
20260503205449 50 335 5.2 8.7 0.00 0.00 0.00 47 1009.5
20260503204945 50 240 0.9 6.1 0.00 0.00 0.00 48 1009.4
20260503204442 50 348 7.8 13.0 0.00 0.00 0.00 46 1009.3
20260503203939 50 291 0.9 7.8 0.00 0.00 0.00 45 1009.3
20260503203437 50 237 4.3 14.8 0.00 0.00 0.00 44 1009.0
20260503202933 51 339 5.2 7.0 0.00 0.00 0.00 44 1009.3
20260503202432 51 293 3.5 6.1 0.00 0.00 0.00 43 1009.0
20260503201930 51 297 6.1 8.7 0.00 0.00 0.00 43 1009.4
20260503201427 50 278 4.3 7.8 0.00 0.00 0.00 44 1009.3
20260503200924 50 301 2.6 7.0 0.00 0.00 0.00 42 1009.6
20260503200420 51 304 3.5 6.1 0.00 0.00 0.00 42 1009.1
20260503195917 51 302 3.5 8.7 0.00 0.00 0.00 39 1009.3
20260503195415 52 304 4.3 11.3 0.00 0.00 0.00 41 1009.5
20260503194911 52 264 4.3 13.0 0.00 0.00 0.00 40 1009.5
20260503194408 52 332 5.2 7.8 0.00 0.00 0.00 41 1009.3
20260503193903 52 284 1.7 6.1 0.00 0.00 0.00 44 1009.7
20260503193359 52 301 6.1 9.6 0.00 0.00 0.00 42 1010.0
20260503192855 51 253 2.6 9.6 0.00 0.00 0.00 43 1009.7
20260503192350 51 268 2.6 4.3 0.00 0.00 0.00 44 1009.7
20260503191847 51 246 3.5 8.7 0.00 0.00 0.00 45 1009.8
20260503191344 49 292 3.5 6.1 0.00 0.00 0.00 46 1009.8
20260503190841 49 336 1.7 9.6 0.00 0.00 0.00 44 1010.1
20260503190338 49 262 0.9 6.1 0.00 0.00 0.00 47 1010.1
20260503185835 48 268 4.3 9.6 0.00 0.00 0.00 44 1009.9
20260503185331 48 282 3.5 9.6 0.00 0.00 0.00 45 1010.0
20260503184826 49 343 2.6 5.2 0.00 0.00 0.00 46 1010.2
20260503184322 48 244 2.6 5.2 0.00 0.00 0.00 46 1010.3
20260503183818 48 313 2.6 7.8 0.00 0.00 0.00 46 1010.1
20260503183315 49 294 0.9 7.0 0.00 0.00 0.00 47 1010.2
20260503182812 48 329 2.6 5.2 0.00 0.00 0.00 49 1010.4
20260503182312 48 254 5.2 6.1 0.00 0.00 0.00 46 1010.4
20260503181808 48 302 0.9 13.0 0.00 0.00 0.00 44 1010.4
20260503181305 49 318 2.6 4.3 0.00 0.00 0.00 46 1010.4
20260503180802 49 291 0.9 6.1 0.00 0.00 0.00 46 1010.4
20260503180300 50 229 7.8 11.3 0.00 0.00 0.00 48 1010.3
20260503175755 48 304 2.6 7.0 0.00 0.00 0.00 49 1010.5
20260503175254 48 245 7.0 12.2 0.00 0.00 0.00 49 1010.4
20260503174755 47 259 1.7 6.1 0.00 0.00 0.00 50 1010.4
20260503174253 47 284 4.3 11.3 0.00 0.00 0.00 49 1010.4
20260503173748 46 342 8.7 12.2 0.00 0.00 0.00 51 1010.8
20260503173244 46 284 4.3 9.6 0.00 0.00 0.00 47 1010.3
20260503172741 46 282 5.2 7.8 0.00 0.00 0.00 50 1010.8
20260503172238 45 247 1.7 5.2 0.00 0.00 0.00 54 1010.8
20260503171735 44 303 3.5 5.2 0.00 0.00 0.00 54 1010.9
20260503171232 44 233 1.7 5.2 0.00 0.00 0.00 53 1011.1
20260503170729 44 335 3.5 11.3 0.00 0.00 0.00 53 1011.3
20260503170226 44 263 2.6 5.2 0.00 0.00 0.00 55 1010.9
20260503160147 42 278 2.6 6.1 0.00 0.00 0.00 57 1011.4
20260503150618 39 304 6.1 7.8 0.00 0.00 0.00 62 1011.3
20260503150114 39 318 0.9 7.0 0.00 0.00 0.00 62 1011.6
20260503131007 37 306 4.3 7.8 0.00 0.00 0.00 75 1011.7
20260503130505 37 267 2.6 7.0 0.00 0.00 0.00 76 1011.4
20260503110355 33 293 0.0 1.7 0.00 0.00 0.00 89 1011.1